Content
SEND FEEDBACK

Daily
Averages
Monthly
Summary
Romania

TIMISOARA, ROMANIA


Home > Europe > Romania
Elevation: 335 feet     Latitude: 45 45N     Longitude: 021 14E

WEATHER
 
SELECT A DAY
Number of Records: 276,759;   Date Range: 7/1/96 - 9/3/14
 
SHARE

PRINT THIS DATA

[ ← Previous Day ]
WEATHER ALMANAC - JULY 20, 2014
[ Next Day → ]
[ °C ]   °F
Weather ElementAverageHighLow
Temperature77.3 °F91.4 °F (7:00 pm)62.6 °F (6:00 am)
Dewpoint64 °F69.8 °F (8:30 am)53.6 °F (5:30 pm)
Humidity68 %100 % (2:00 am)29 % (5:30 pm)
Barometer29.96 in30.01 in (9:00 am)29.88 in (9:00 pm)
Wind Speed3.2 mph5.8 mph (8:00 am)
Weather ElementAverage
Visibility5.5 mi
Wind DirectionENE (75.8 °)

Weather ElementTotal
Precipitation---
Cooling Degree Days12 (Base 65)
Growing Degree Days27 (Base 50)
Averaged from 53 records on July 20, 2014
WEATHER CONDITIONS BREAKOUT
WIND DIRECTION BREAKOUT
WEATHER BY HOUR - JULY 20, 2014
[ °C ]   °F
Local TimeTemperatureDewpointHumidityBarometerVisibilityWind DirectionWind SpeedGust SpeedPrecipitationEventsConditions
12:00 AM68.0 °F66.2 °F94 %29.98 inNE (40°)4.6 mphClear
12:30 AM68.0 °F66.2 °F94 %29.98 inNNE (30°)3.5 mphClear
1:00 AM68.0 °F66.2 °F94 %29.98 inNorth (10°)3.5 mphClear
1:30 AM68.0 °F66.2 °F94 %29.98 inNE (40°)4.6 mphClear
2:00 AM66.2 °F66.2 °F100 %29.98 inNNE (30°)3.5 mphClear
2:30 AM66.2 °F64.4 °F94 %29.98 inENE (70°)3.5 mphClear
3:00 AM64.4 °F64.4 °F100 %29.98 inENE (60°)4.6 mphClear
3:00 AM67.0 °F65.0 °F91 %29.98 in6.0 miESE (110°)2.2 mph
3:30 AM64.4 °F62.6 °F94 %29.98 inENE (60°)3.5 mphClear
4:00 AM64.4 °F62.6 °F94 %29.98 inNE (50°)4.6 mphClear
4:30 AM64.4 °F64.4 °F100 %29.98 inVariable2.3 mphClear
5:00 AM64.4 °F62.6 °F94 %29.98 inENE (70°)4.6 mphClear
6:00 AM62.6 °F62.6 °F100 %29.98 in4.3 miEast (80°)4.6 mph
6:00 AM65.0 °F64.0 °F97 %29.97 in6.0 miEast (90°)2.2 mph
6:30 AM62.6 °F62.6 °F100 %29.98 in2.5 miVariable2.3 mphMist
7:00 AM64.4 °F62.6 °F94 %29.98 in3.1 miNE (50°)3.5 mphFogShallow Fog
7:30 AM66.2 °F66.2 °F100 %29.98 inEast (80°)3.5 mphClear
8:00 AM69.8 °F68.0 °F94 %29.98 inEast (80°)5.8 mphClear
8:30 AM69.8 °F69.8 °F100 %29.98 inEast (90°)5.8 mphClear
9:00 AM73.4 °F69.8 °F88 %30.01 inEast (90°)4.6 mphClear
9:00 AM71.0 °F66.0 °F79 %29.98 in6.0 miESE (110°)2.2 mph
9:30 AM75.2 °F68.0 °F78 %30.01 inEast (90°)3.5 mphClear
10:00 AM77.0 °F68.0 °F74 %30.01 inESE (120°)4.6 mphClear
10:30 AM78.8 °F68.0 °F69 %30.01 inVariable2.3 mphClear
11:00 AM80.6 °F68.0 °F65 %30.01 inVariable1.2 mphClear
11:30 AM84.2 °F66.2 °F55 %29.98 in6.2 miVariable2.3 mphPartly Cloudy
12:00 PM84.2 °F64.4 °F51 %29.98 in6.2 miVariable2.3 mphPartly Cloudy
12:00 PM84.0 °F65.0 °F44 %29.97 in6.0 miCalm (170°)
12:30 PM86.0 °F64.4 °F48 %29.98 in6.2 miVariable3.5 mphPartly Cloudy
1:00 PM86.0 °F64.4 °F48 %29.98 in6.2 miVariable4.6 mphPartly Cloudy
1:30 PM87.8 °F59.0 °F38 %29.98 in6.2 miVariable3.5 mphPartly Cloudy
2:30 PM87.8 °F62.6 °F43 %29.95 inVariable3.5 mphClear
3:00 PM89.6 °F62.6 °F40 %29.95 inNorth (10°)3.5 mphClear
3:00 PM86.0 °F60.0 °F31 %29.93 in6.0 miNE (50°)2.2 mphPartly Cloudy
3:30 PM89.6 °F64.4 °F43 %29.95 inNorth (360°)3.5 mphClear
4:00 PM87.8 °F59.0 °F38 %29.95 inNE (40°)3.5 mphClear
4:30 PM89.6 °F55.4 °F31 %29.95 inVariable3.5 mphClear
5:00 PM89.6 °F57.2 °F33 %29.95 inVariable3.5 mphClear
5:30 PM89.6 °F53.6 °F29 %29.92 inNNW (330°)3.5 mphClear
6:00 PM89.6 °F60.8 °F38 %29.92 inWNW (290°)4.6 mphClear
6:00 PM90.0 °F62.0 °F29 %29.91 in6.0 miNE (50°)2.2 mphPartly Cloudy
6:30 PM89.6 °F59.0 °F36 %29.92 inWNW (290°)3.5 mphClear
7:00 PM91.4 °F55.4 °F29 %29.92 inNW (320°)2.3 mphClear
7:30 PM89.6 °F57.2 °F33 %29.92 inCalmClear
8:00 PM87.8 °F66.2 °F49 %29.92 inEast (100°)2.3 mphClear
8:30 PM84.2 °F66.2 °F55 %29.89 inENE (70°)3.5 mphClear
9:00 PM84.2 °F64.4 °F51 %29.92 inSE (140°)2.3 mphClear
9:00 PM85.0 °F65.0 °F42 %29.88 in6.0 miESE (110°)2.2 mphScattered Clouds
9:30 PM82.4 °F64.4 °F54 %29.92 inCalmClear
10:00 PM77.0 °F64.4 °F65 %29.92 inNE (40°)2.3 mphClear
10:30 PM73.4 °F68.0 °F83 %29.92 inEast (100°)3.5 mphClear
11:00 PM71.6 °F69.8 °F94 %29.92 inNE (40°)3.5 mphClear
11:30 PM69.8 °F68.0 °F94 %29.92 inENE (60°)3.5 mphClear
Hourly data recorded from LRTR, located miles away from Timisoara, Romania







STORIES FROM OUR PARTNERS